$DATE,$TIME,DM0600B,DM0602B,DM0604B,DM0614B,DM0616B,DM0618B,DM0624B,DM0628B,DM0630B,DM0634B,DM0606B,DM0608B,DM0610B
06/07/94,00:00:00,5,7,24,0,0,0,0,57,26,0,19,24,22
06/07/94,00:05:00,0,0,0,0,0,0,0,56,26,0,27,30,18
06/07/94,00:10:00,0,2,3,0,0,0,0,57,26,0,20,22,18
06/07/94,00:15:00,0,0,0,0,0,0,0,57,26,0,24,33,23
06/07/94,00:20:00,0,0,0,0,0,0,0,57,26,0,26,23,20
06/07/94,00:25:00,0,0,0,0,0,0,0,57,55,0,22,34,24
06/07/94,00:30:00,0,0,0,0,0,0,0,57,26,0,32,24,23
06/07/94,00:35:00,0,0,0,0,0,0,0,57,26,0,22,32,22
06/07/94,00:40:00,0,0,0,0,0,0,0,57,26,0,29,33,30
06/07/94,00:45:00,0,0,0,0,0,0,0,57,26,0,27,28,20
06/07/94,00:50:00,0,0,0,0,0,0,0,57,26,0,25,37,30
06/07/94,00:55:00,23,18,29,0,0,0,0,57,26,0,30,25,17
06/07/94,01:00:00,0,2,6,0,0,0,0,57,26,0,19,33,25
06/07/94,01:05:00,0,18,3,0,0,0,0,57,26,0,27,24,18
06/07/94,01:10:00,27,24,14,0,0,0,0,56,26,0,25,31,24
06/07/94,01:15:00,55,34,44,0,0,0,0,55,25,0,17,17,15
06/07/94,01:20:00,33,11,31,0,0,0,0,55,25,0,13,13,11
06/07/94,01:25:00,0,1,14,0,0,0,0,56,25,0,12,12,10
06/07/94,01:30:00,55,43,55,0,0,0,0,55,25,0,11,22,9
06/07/94,01:35:00,44,19,41,0,0,0,0,54,25,0,10,16,8
06/07/94,01:40:00,0,0,0,0,0,0,0,55,25,0,10,12,8
06/07/94,01:45:00,20,31,49,0,0,0,0,56,26,0,11,17,9
06/07/94,01:50:00,39,35,59,0,0,0,0,55,25,0,19,23,16
06/07/94,01:55:00,59,32,40,0,0,0,0,54,47,0,16,14,12
06/07/94,02:00:00,47,28,42,0,0,0,0,54,25,0,13,11,10
06/07/94,02:05:00,50,18,43,0,0,0,0,54,25,0,11,9,9
06/07/94,02:10:00,51,25,40,0,0,0,0,54,25,0,10,8,8
06/07/94,02:15:00,55,34,26,0,0,0,0,54,25,0,9,7,7
06/07/94,02:20:00,52,33,26,0,0,0,0,54,25,0,8,7,7
06/07/94,02:25:00,38,35,32,0,0,0,0,54,25,0,8,6,7
06/07/94,02:30:00,37,26,32,0,0,0,0,54,25,0,8,6,7
06/07/94,02:35:00,33,27,33,0,0,0,0,55,25,0,7,6,7
06/07/94,02:40:00,42,24,44,0,0,0,0,54,25,0,7,5,6
06/07/94,02:45:00,32,30,31,0,0,0,0,55,25,0,7,6,6
06/07/94,02:50:00,42,28,39,0,0,0,0,55,56,0,7,6,6
06/07/94,02:55:00,47,21,37,0,0,0,0,55,25,0,8,6,7
06/07/94,03:00:00,32,29,36,0,0,0,0,55,25,0,7,5,7
06/07/94,03:05:00,42,32,34,0,0,0,0,55,25,0,7,5,7
06/07/94,03:10:00,44,31,35,0,0,0,0,55,25,0,7,5,6
06/07/94,03:15:00,48,39,29,0,0,0,0,54,25,0,6,5,6
06/07/94,03:20:00,43,37,39,0,0,0,0,54,25,0,7,5,6
06/07/94,03:25:00,40,34,37,0,0,0,0,54,25,0,6,5,6
06/07/94,03:30:00,52,37,37,0,0,0,0,55,25,0,6,5,6
06/07/94,03:35:00,57,36,37,0,0,0,0,55,25,0,6,5,6
06/07/94,03:40:00,57,31,43,0,0,0,0,55,25,0,6,6,6
06/07/94,03:45:00,45,31,29,0,0,0,0,55,25,0,6,6,6
06/07/94,03:50:00,52,4,4,0,0,0,0,56,25,0,7,6,6
06/07/94,03:55:00,61,11,12,0,0,0,0,56,25,0,6,5,6
06/07/94,04:00:00,54,14,11,0,0,0,0,56,25,0,7,5,7
06/07/94,04:05:00,62,11,11,0,0,0,0,56,60,0,7,12,7
06/07/94,04:10:00,72,13,9,0,0,0,0,56,44,0,6,17,6
06/07/94,04:15:00,52,16,0,0,0,0,0,56,25,0,6,12,6
06/07/94,04:20:00,57,6,3,0,0,0,0,56,25,0,6,10,6
06/07/94,04:25:00,69,10,23,0,0,0,0,56,25,0,6,8,6
06/07/94,04:30:00,71,10,26,0,0,0,0,56,25,0,6,7,6
06/07/94,04:35:00,0,0,12,0,0,0,0,56,26,0,6,9,6
06/07/94,04:40:00,0,0,14,0,0,0,0,56,26,0,14,23,7
06/07/94,04:45:00,52,33,54,0,0,0,0,55,25,0,18,20,12
06/07/94,04:50:00,50,27,44,0,0,0,0,54,25,0,14,13,10
06/07/94,04:55:00,59,28,38,0,0,0,0,54,47,0,12,10,8
06/07/94,05:00:00,52,27,42,0,0,0,0,54,25,0,10,8,7
06/07/94,05:05:00,59,35,45,0,0,0,0,54,25,0,9,7,7
06/07/94,05:10:00,53,27,43,0,0,0,0,54,25,0,8,7,6
06/07/94,05:15:00,58,32,38,0,0,0,0,54,25,0,7,6,6
06/07/94,05:20:00,55,28,46,0,0,0,0,54,25,0,7,6,6
06/07/94,05:25:00,38,30,40,0,0,0,0,54,25,0,7,6,6
06/07/94,05:30:00,42,25,35,0,0,0,0,55,25,0,7,5,6
06/07/94,05:35:00,32,40,33,0,0,0,0,55,25,0,6,5,6
06/07/94,05:40:00,45,29,37,0,0,0,0,55,25,0,6,6,6
06/07/94,05:45:00,56,34,34,0,0,0,0,55,25,0,6,6,6
06/07/94,05:50:00,58,14,0,0,0,0,0,56,25,0,7,6,7
06/07/94,05:55:00,46,4,5,0,0,0,0,57,25,0,7,15,7
06/07/94,06:00:00,53,3,7,0,0,0,0,57,25,0,7,17,6
06/07/94,06:05:00,53,8,6,0,0,0,0,56,25,0,7,12,6
06/07/94,06:10:00,66,8,10,0,0,0,0,56,25,0,6,15,6
06/07/94,06:15:00,43,12,3,0,0,0,0,56,25,0,6,19,6
06/07/94,06:20:00,45,16,0,0,0,0,0,57,25,0,6,13,6
06/07/94,06:25:00,49,19,15,0,0,0,0,57,25,0,10,15,6
06/07/94,06:30:00,60,16,19,0,0,0,0,56,25,0,16,20,6
06/07/94,06:35:00,43,11,14,0,0,0,0,57,25,0,13,13,6
06/07/94,06:40:00,50,14,0,0,0,0,0,57,25,0,10,10,6
06/07/94,06:45:00,68,16,14,0,0,0,0,56,25,0,8,20,6
06/07/94,06:50:00,45,3,22,0,0,0,0,57,25,0,7,16,6
06/07/94,06:55:00,45,10,6,0,0,0,0,57,25,0,7,12,7
06/07/94,07:00:00,44,1,29,0,0,0,0,57,25,0,11,19,6
06/07/94,07:05:00,59,9,6,0,0,0,0,57,25,0,17,18,6
06/07/94,07:10:00,47,11,2,0,0,0,0,57,25,0,13,12,6
06/07/94,07:15:00,53,15,0,0,0,0,0,57,25,0,10,19,6
06/07/94,07:20:00,46,3,8,0,0,0,0,57,25,0,9,18,6
06/07/94,07:25:00,49,2,14,0,0,0,0,57,25,0,8,13,6
06/07/94,07:30:00,45,7,0,0,0,0,0,57,25,0,15,23,5
06/07/94,07:35:00,40,2,6,0,0,0,0,56,25,0,16,17,6
06/07/94,07:40:00,37,5,2,0,0,0,0,57,25,0,12,13,5
06/07/94,07:45:00,43,4,2,0,0,0,0,57,25,0,10,23,5
06/07/94,07:50:00,57,13,0,0,0,0,0,57,25,0,8,15,6
06/07/94,07:55:00,37,2,2,0,0,0,0,57,25,0,16,17,5
06/07/94,08:00:00,41,9,6,0,0,0,0,57,25,0,18,21,6
06/07/94,08:05:00,31,6,9,0,0,0,0,57,25,0,13,13,6
06/07/94,08:10:00,62,3,20,0,0,0,0,57,25,0,10,20,6
06/07/94,08:15:00,46,2,1,0,0,0,0,56,25,0,8,19,6
06/07/94,08:20:00,49,9,0,0,0,0,0,56,25,0,12,13,6
06/07/94,08:25:00,30,6,0,0,0,0,0,56,25,0,19,22,6
06/07/94,08:30:00,46,3,10,0,0,0,0,56,25,0,14,16,6
06/07/94,08:35:00,50,6,12,0,0,0,0,57,25,0,10,14,6
06/07/94,08:40:00,50,4,13,0,0,0,0,57,36,0,8,24,5
06/07/94,08:45:00,41,5,1,0,0,0,0,57,26,0,14,16,5
06/07/94,08:50:00,45,12,0,0,0,0,0,57,26,0,17,15,6
06/07/94,08:55:00,41,8,5,0,0,0,0,57,26,0,13,21,5
06/07/94,09:00:00,46,3,10,0,0,0,0,57,26,0,10,13,5
06/07/94,09:05:00,42,9,5,0,0,0,0,56,26,0,10,21,6
06/07/94,09:10:00,56,5,9,0,0,0,0,56,26,0,17,17,6
06/07/94,09:15:00,43,8,17,0,0,0,0,56,26,0,15,13,6
06/07/94,09:20:00,54,4,3,0,0,0,0,57,26,0,11,23,6
06/07/94,09:25:00,66,17,0,0,0,0,0,57,26,0,9,16,6
06/07/94,09:30:00,58,11,0,0,0,0,0,57,25,0,13,17,6
06/07/94,09:35:00,40,2,2,0,0,0,0,57,25,0,18,21,6
06/07/94,09:40:00,42,9,0,0,0,0,0,57,25,0,14,13,6
06/07/94,09:45:00,47,5,4,0,0,0,0,56,25,0,10,19,5
06/07/94,09:50:00,60,8,8,0,0,0,0,56,25,0,9,20,5
06/07/94,09:55:00,38,5,0,0,0,0,0,57,25,0,11,14,6
06/07/94,10:00:00,40,15,0,0,0,0,0,56,25,0,19,23,5
06/07/94,10:05:00,41,13,0,0,0,0,0,57,25,0,15,15,5
06/07/94,10:10:00,43,5,0,0,0,0,0,57,32,0,11,14,6
06/07/94,10:15:00,58,12,0,0,0,0,0,57,26,0,9,24,6
06/07/94,10:20:00,49,15,0,0,0,0,0,57,26,0,9,15,6
06/07/94,10:25:00,57,6,3,0,0,0,0,56,26,0,17,18,6
06/07/94,10:30:00,56,4,0,0,0,0,0,56,26,0,16,20,6
06/07/94,10:35:00,62,16,0,0,0,0,0,57,26,0,12,13,6
06/07/94,10:40:00,56,7,11,0,0,0,0,57,26,0,10,20,6
06/07/94,10:45:00,33,19,0,0,0,0,0,57,26,0,8,18,5
06/07/94,10:50:00,44,2,4,0,0,0,0,57,26,0,13,14,6
06/07/94,10:55:00,45,8,5,0,0,0,0,57,36,0,19,23,6
06/07/94,11:00:00,45,7,0,0,0,0,0,56,26,0,13,15,6
06/07/94,11:05:00,54,14,12,0,0,0,0,57,26,0,10,16,6
06/07/94,11:10:00,43,13,6,0,0,0,0,57,26,0,8,21,5
06/07/94,11:15:00,43,7,6,0,0,0,0,57,26,0,12,14,6
06/07/94,11:20:00,55,2,0,0,0,0,0,57,26,0,19,21,6
06/07/94,11:25:00,51,14,0,0,0,0,0,57,26,0,14,17,6
06/07/94,11:30:00,49,3,2,0,0,0,0,57,26,0,10,13,6
06/07/94,11:35:00,72,5,0,0,0,0,0,57,25,0,8,22,6
06/07/94,11:40:00,34,3,24,0,0,0,0,57,32,0,7,16,5
06/07/94,11:45:00,20,4,29,0,0,0,0,58,25,0,15,20,14
06/07/94,11:50:00,1,7,0,0,0,0,0,57,25,0,21,23,16
06/07/94,11:55:00,15,5,0,0,0,0,0,57,26,0,14,19,11
06/07/94,12:00:00,8,4,6,0,0,0,0,57,26,0,18,28,13
06/07/94,12:05:00,0,0,34,0,0,0,0,57,26,0,22,17,18
06/07/94,12:10:00,25,25,0,0,0,0,0,57,37,0,14,26,12
06/07/94,12:15:00,20,22,8,0,0,0,0,57,26,0,19,21,12
06/07/94,12:20:00,0,8,3,0,0,0,0,57,26,0,23,23,19
06/07/94,12:25:00,27,7,12,0,0,0,0,57,37,0,15,22,13
06/07/94,12:30:00,1,11,11,0,0,0,0,57,26,0,20,24,12
06/07/94,12:35:00,1,13,20,0,0,0,0,57,26,0,21,24,19
06/07/94,12:40:00,3,16,4,0,0,0,0,57,26,0,15,20,13
06/07/94,12:45:00,11,14,1,0,0,0,0,58,26,0,22,29,16
06/07/94,12:50:00,13,16,13,0,0,0,0,57,26,0,20,18,18
06/07/94,12:55:00,10,19,21,0,0,0,0,57,26,0,15,27,12
06/07/94,13:00:00,11,15,10,0,0,0,0,57,26,0,23,21,16
06/07/94,13:05:00,8,17,3,0,0,0,0,57,26,0,20,24,18
06/07/94,13:10:00,1,24,11,0,0,0,0,57,37,0,15,26,12
06/07/94,13:15:00,10,13,0,0,0,0,0,57,26,0,22,22,21
06/07/94,13:20:00,4,30,1,0,0,0,0,57,26,0,21,26,16
06/07/94,13:25:00,3,22,0,0,0,0,0,57,26,0,16,20,12
06/07/94,13:30:00,17,1,18,0,0,0,0,57,26,0,23,29,21
06/07/94,13:35:00,5,20,3,0,0,0,0,57,26,0,19,18,15
06/07/94,13:40:00,24,27,8,0,0,0,0,57,26,0,16,26,11
06/07/94,13:45:00,1,29,20,0,0,0,0,58,26,0,24,20,14
06/07/94,13:50:00,23,23,27,0,0,0,0,57,26,0,18,21,18
06/07/94,13:55:00,28,18,27,0,0,0,0,57,37,0,13,22,13
06/07/94,14:00:00,40,27,20,0,0,0,0,57,26,0,16,19,10
06/07/94,14:05:00,5,15,9,0,0,0,0,57,26,0,21,25,9
06/07/94,14:10:00,18,18,18,0,0,0,0,57,26,0,15,17,10
06/07/94,14:15:00,4,17,10,0,0,0,0,57,26,0,17,27,20
06/07/94,14:20:00,0,14,13,0,0,0,0,57,26,0,23,18,13
06/07/94,14:25:00,17,9,8,0,0,0,0,57,26,0,16,24,11
06/07/94,14:30:00,7,14,0,0,0,0,0,59,26,0,17,25,21
06/07/94,14:35:00,8,6,0,0,0,0,0,57,26,0,24,21,14
06/07/94,14:40:00,4,10,20,0,0,0,0,57,30,0,17,28,11
06/07/94,14:45:00,2,4,16,0,0,0,0,57,26,0,19,20,22
06/07/94,14:50:00,5,13,0,0,0,0,0,57,26,0,24,29,15
06/07/94,14:55:00,17,16,2,0,0,0,0,57,26,0,16,18,11
06/07/94,15:00:00,16,4,37,0,0,0,0,57,26,0,16,28,20
06/07/94,15:05:00,6,22,24,0,0,0,0,57,26,0,21,17,14
06/07/94,15:10:00,28,20,9,0,0,0,0,57,26,0,16,25,11
06/07/94,15:15:00,14,11,13,0,0,0,0,57,26,0,18,22,20
06/07/94,15:20:00,20,27,0,0,0,0,0,57,26,0,23,21,16
06/07/94,15:25:00,12,18,0,0,0,0,0,57,26,0,16,27,11
06/07/94,15:30:00,16,11,1,0,0,0,0,57,26,0,19,21,22
06/07/94,15:35:00,26,16,1,0,0,0,0,57,26,0,23,27,16
06/07/94,15:40:00,14,7,4,0,0,0,0,57,26,0,16,20,12
06/07/94,15:45:00,9,15,0,0,0,0,0,57,26,0,22,29,22
06/07/94,15:50:00,9,18,15,0,0,0,0,57,26,0,20,18,15
06/07/94,15:55:00,2,31,0,0,0,0,0,57,26,0,16,26,14
06/07/94,16:00:00,2,18,3,0,0,0,0,57,26,0,23,21,19
06/07/94,16:05:00,6,16,31,0,0,0,0,57,26,0,18,20,13
06/07/94,16:10:00,15,26,0,0,0,0,0,57,26,0,13,27,10
06/07/94,16:15:00,14,29,18,0,0,0,0,57,25,0,18,18,13
06/07/94,16:20:00,11,20,14,0,0,0,0,57,25,0,20,22,16
06/07/94,16:25:00,37,18,26,0,0,0,0,56,25,0,15,14,12
06/07/94,16:30:00,34,18,20,0,0,0,0,56,25,0,11,13,10
06/07/94,16:35:00,33,12,28,0,0,0,0,56,25,0,9,21,8
06/07/94,16:40:00,31,15,28,0,0,0,0,56,25,0,9,14,7
06/07/94,16:45:00,34,19,25,0,0,0,0,56,25,0,8,11,7
06/07/94,16:50:00,35,13,29,0,0,0,0,56,25,0,8,16,7
06/07/94,16:55:00,18,8,18,0,0,0,0,56,25,0,7,18,6
06/07/94,17:00:00,7,8,21,0,0,0,0,57,25,0,9,14,6
06/07/94,17:05:00,0,0,20,0,0,0,0,57,25,0,19,26,16
06/07/94,17:10:00,43,0,7,0,0,0,0,56,25,0,19,18,15
06/07/94,17:15:00,16,0,0,0,0,0,0,57,25,0,14,13,11
06/07/94,17:20:00,9,0,0,0,0,0,0,57,25,0,15,25,10
06/07/94,17:25:00,4,0,0,0,0,0,0,57,26,0,25,23,22
06/07/94,17:30:00,14,3,0,0,0,0,0,57,26,0,20,24,14
06/07/94,17:35:00,0,1,0,0,0,0,0,57,26,0,20,32,23
06/07/94,17:40:00,16,19,0,0,0,0,0,57,26,0,28,24,18
06/07/94,17:45:00,5,18,0,0,0,0,0,57,26,0,19,33,21
06/07/94,17:50:00,4,23,0,0,0,0,0,58,26,0,24,23,20
06/07/94,17:55:00,7,25,0,0,0,0,0,58,26,0,28,34,22
06/07/94,18:00:00,0,13,0,0,0,0,0,58,26,0,20,22,19
06/07/94,18:05:00,0,0,0,0,0,0,0,57,26,0,29,35,28
06/07/94,18:10:00,0,0,0,0,0,0,0,57,26,0,23,22,18
06/07/94,18:15:00,0,0,0,0,0,0,0,57,26,0,27,34,30
06/07/94,18:20:00,0,0,0,0,0,0,0,57,26,0,28,23,21
06/07/94,18:25:00,1,0,0,0,0,0,0,57,26,0,24,33,25
06/07/94,18:30:00,12,9,7,0,0,0,0,57,26,0,29,23,18
06/07/94,18:35:00,0,0,3,0,0,0,0,57,26,0,20,30,25
06/07/94,18:40:00,0,0,0,0,0,0,0,57,26,0,31,27,21
06/07/94,18:45:00,11,6,12,0,0,0,0,57,26,0,22,29,24
06/07/94,18:50:00,0,0,0,0,0,0,0,57,26,0,24,30,24
06/07/94,18:55:00,9,7,13,0,0,0,0,57,26,0,30,28,20
06/07/94,19:00:00,11,10,14,0,0,0,0,57,26,0,19,27,25
06/07/94,19:05:00,2,12,9,0,0,0,0,57,26,0,28,27,18
06/07/94,19:10:00,9,9,11,0,0,0,0,57,26,0,22,25,18
06/07/94,19:15:00,6,11,7,0,0,0,0,57,26,0,18,26,20
06/07/94,19:20:00,8,4,10,0,0,0,0,57,26,0,28,27,20
06/07/94,19:25:00,12,18,15,0,0,0,0,57,26,0,21,25,19
06/07/94,19:30:00,9,11,10,0,0,0,0,56,26,0,20,32,20
06/07/94,19:35:00,2,3,0,0,0,0,0,57,26,0,26,22,19
06/07/94,19:40:00,19,15,27,0,0,0,0,56,26,0,18,31,13
06/07/94,19:45:00,28,28,20,0,0,0,0,56,26,0,13,17,10
06/07/94,19:50:00,62,48,50,0,0,0,0,55,25,0,11,20,8
06/07/94,19:55:00,46,42,34,0,0,0,0,55,25,0,10,14,8
06/07/94,20:00:00,53,42,27,0,0,0,0,55,25,0,9,11,7
06/07/94,20:05:00,49,26,35,0,0,0,0,54,25,0,8,9,7
06/07/94,20:10:00,47,30,42,0,0,0,0,54,25,0,8,8,7
06/07/94,20:15:00,27,30,41,0,0,0,0,54,25,0,8,7,6
06/07/94,20:20:00,48,29,40,0,0,0,0,54,25,0,7,7,6
06/07/94,20:25:00,45,31,41,0,0,0,0,54,25,0,7,6,6
06/07/94,20:30:00,49,28,43,0,0,0,0,54,25,0,7,6,6
06/07/94,20:35:00,53,30,40,0,0,0,0,54,25,0,7,6,6
06/07/94,20:40:00,52,25,40,0,0,0,0,54,25,0,7,5,7
06/07/94,20:45:00,54,28,43,0,0,0,0,54,25,0,7,6,7
06/07/94,20:50:00,50,26,39,0,0,0,0,54,25,0,7,6,6
06/07/94,20:55:00,54,29,44,0,0,0,0,54,25,0,7,6,6
06/07/94,21:00:00,53,29,45,0,0,0,0,54,25,0,6,6,6
06/07/94,21:05:00,51,26,39,0,0,0,0,54,25,0,7,6,6
06/07/94,21:10:00,59,33,30,0,0,0,0,54,25,0,6,6,6
06/07/94,21:15:00,49,4,8,0,0,0,0,55,25,0,7,6,6
06/07/94,21:20:00,66,8,17,0,0,0,0,55,25,0,6,6,6
06/07/94,21:25:00,73,10,20,0,0,0,0,55,25,0,6,5,6
06/07/94,21:30:00,68,10,19,0,0,0,0,55,25,0,6,5,6
06/07/94,21:35:00,69,9,19,0,0,0,0,55,25,0,6,5,6
06/07/94,21:40:00,72,10,10,0,0,0,0,55,25,0,6,5,6
06/07/94,21:45:00,70,12,12,0,0,0,0,55,25,0,7,6,7
06/07/94,21:50:00,57,4,19,0,0,0,0,56,25,0,7,6,6
06/07/94,21:55:00,48,10,4,0,0,0,0,56,25,0,7,6,6
06/07/94,22:00:00,60,16,14,0,0,0,0,56,25,0,6,11,6
06/07/94,22:05:00,69,10,1,0,0,0,0,56,25,0,6,17,6
06/07/94,22:10:00,54,7,17,0,0,0,0,56,25,0,6,12,6
06/07/94,22:15:00,51,11,0,0,0,0,0,56,25,0,6,9,6
06/07/94,22:20:00,50,17,13,0,0,0,0,56,25,0,6,16,6
06/07/94,22:25:00,56,16,12,0,0,0,0,56,25,0,6,18,6
06/07/94,22:30:00,54,14,9,0,0,0,0,56,25,0,6,12,6
06/07/94,22:35:00,51,8,7,0,0,0,0,56,26,0,6,13,6
06/07/94,22:40:00,41,4,5,0,0,0,0,56,26,0,6,22,6
06/07/94,22:45:00,49,5,0,0,0,0,0,56,26,0,6,14,6
06/07/94,22:50:00,47,17,5,0,0,0,0,56,26,0,13,14,6
06/07/94,22:55:00,48,10,3,0,0,0,0,56,25,0,17,19,6
06/07/94,23:00:00,56,9,9,0,0,0,0,56,25,0,13,13,6
06/07/94,23:05:00,56,11,4,0,0,0,0,56,25,0,10,11,6
06/07/94,23:10:00,50,8,21,0,0,0,0,56,25,0,9,22,6
06/07/94,23:15:00,56,8,0,0,0,0,0,56,25,0,8,15,5
06/07/94,23:20:00,57,13,2,0,0,0,0,57,25,0,8,12,5
06/07/94,23:25:00,43,6,2,0,0,0,0,57,25,0,16,22,5
06/07/94,23:30:00,47,4,18,0,0,0,0,56,25,0,15,15,5
06/07/94,23:35:00,22,10,0,0,0,0,0,56,25,0,11,11,5
06/07/94,23:40:00,50,7,0,0,0,0,0,56,25,0,9,20,5
06/07/94,23:45:00,41,13,7,0,0,0,0,56,25,0,8,18,5
06/07/94,23:50:00,39,3,11,0,0,0,0,57,25,0,9,13,5
06/07/94,23:55:00,61,7,10,0,0,0,0,56,25,0,17,23,6
06/08/94,00:00:00,46,1,7,0,0,0,0,56,25,0,15,16,6
